Location: Aufkirchen
(47.9603°N, 11.3653°E)
Time: 11:56:54
(UTC+01:00)

deb Explorer IX - Pass Details

Date: 29 November 2020
Orbit: 536 x 1104 km, 38.8° (Epoch: 19 January)

Event Time Altitude Azimuth Distance (km) Brightness Sun altitude
Rises 17:29:10 0° 238° (WSW) 3,543 ? -10.5°
Reaches altitude 10° 17:32:15 10° 227° (SW) 2,498 ? -11.0°
Maximum altitude 17:37:09 28° 171° (S) 1,436 ? -11.7°
Drops below altitude 10° 17:41:26 10° 114° (ESE) 2,169 ? -12.4°
Enters shadow 17:41:37 - 112° (ESE) 2,224 ? -12.4°
